Voltar ao catálogo

STARLINK-31918

AtivoComunicaçõesVLEO
NORAD 60037·PAYLOAD·🇺🇸 United States

Lançado Jun 8, 2024 de Cape Canaveral Space Force Station

Loading…

Próximas Passagens (próximas 24 horas)

TLE

AtualizadoSource: CelesTrak SupGP

Época: Sep 14, 2026, 13:45 UTC

1 60037C 24111X   26257.57340278  .00024431  00000+0  72196-3 0  2571
2 60037  53.1581 277.4314 0001008  72.0187 315.2062 15.34372357    13

Acompanhe STARLINK-31918 em tempo real com AllMySat

Download on the App Store